Location: Barcelona
(41.3829°N, 2.1774°E)
Time: 21:42:52
(UTC+00:00)

ISS - Pass Details

Date: 09 July 2025
Orbit: 413 x 417 km, 51.6° (Epoch: 13 July)

Event Time Altitude Azimuth Distance (km) Brightness Sun altitude
Rises 21:32:39 0° 261° (W) 2,344 0.4 -18.2°
Reaches altitude 10° 21:34:55 10° 273° (W) 1,485 -0.5 -18.4°
Maximum altitude 21:37:52 29° 336° (NNW) 797 -1.6 -18.7°
Drops below altitude 10° 21:40:51 10° 39° (NE) 1,492 -0.8 -19.0°
Sets 21:43:07 0° 51° (NE) 2,358 0.1 -19.2°
